Showing default

PICO-01B009, 58287

Orbit data source: Space-Track

PICO-01B009, 58287 is a payload satellite owned by Apogeo Space (IT) in SSO that was launched on Sat, 11 Nov 2023 UTC via an FALCON 9 launch vehicle from the Air Force Western Test Range (AFWTR). Payload-class satellites include a variety of spacecraft equipped with specific instruments for various scientific and technological missions. These include communications satellites like Starlink; space stations such as the ISS; scientific satellites like the Hubble; Earth observation satellites from companies like Planet Labs, Umbra, and HawkEye 360; GPS; miniature CubeSats for education and research; and military/defense satellites.

Loading next visibility...
Identifier
58287, 2023-174AH
Orbit
SSO
Country
Flag of ITIT
Related business
Manufacturer
Apogeo Space
Mission
Operational Commercial Communications
Bus & Motor
CUBESAT 0.3U, Unknown motor
Mass
0.5 kg wet, 0.5 kg dry
Launch date (UTC)
2023-11-11 (2 years ago)
Launch vehicle
FALCON 9
Launch site
Air Force Western Test Range (AFWTR)
Object type
Payload
Rocket body
Debris
Shape & HBR
Box, 0.1 m
Radar Cross Section
0.080 m², Small (<0.1 m²)

Expand to show TLE details & history
Last TLE update: 8 hours ago

TLE from 8 hours ago
0 PICO-01B009
1 58287U 23174AH  25260.99088705  .00026772  00000-0  60176-3 0  9995
2 58287  97.4054 342.2756 0006011  49.9078 310.2696 15.43299109103762
Epoch: 2025-09-17T23:46Z
TLE epoch observation values (Epoch: 2025-09-17T23:46:52.641Z)
Latitude
0.00002°
Longitude
-11.60264°
Altitude
436.855 km
Speed
7.651 km/s
True Right ascension
22h 49m 06s
True Declination
0° 00' 00"
Sunlit
Object was in full shadow at epoch
Visualization orbit readout
Latitude
Unknown
Longitude
Unknown
Altitude
Unknown
Speed
Unknown
Apparent Right ascension
Unknown
Apparent Declination
Unknown
Sunlit
N/A
Visualization observer readout
Local Sidereal Time
00:49:09
Azimuth
Unknown
Elevation
Unknown
Doppler factor
Unknown
Orbital elements
Apogee altitude
437.41 km
Perigee altitude
429.221 km
Semi-major axis
6,811.452 km
Eccentricity
0.0006
Inclination
97.4054°
RAAN
342.2756°
Arg. of periapsis
49.9078°
True anomaly
310.21702°
Mean anomaly
310.2696°
Eccentric anomaly
310.24331°
Mean motion
3.86086 °/min
Orbital period
93.24 mins
BSTAR
0.00060176
Loading maneuver chart data...
Computing Atmospheric mass density...
Loading historical data...
Loading historical data...
Loading historical data...
Loading historical data...
Loading historical data...
Loading historical data...
Loading historical data...

Documentation

Showing up to 5 results
|